TimeAKST,TemperatureF,Dew PointF,Humidity,Sea Level PressureIn,VisibilityMPH,Wind Direction,Wind SpeedMPH,Gust SpeedMPH,PrecipitationIn,Events,Conditions,WindDirDegrees,DateUTC
12:53 AM,24.1,21.0,88,29.92,10.0,West,6.9,-,N/A,,Scattered Clouds,280,2013-03-02 09:53:00
1:53 AM,23.0,19.9,88,29.92,10.0,West,6.9,-,N/A,,Clear,280,2013-03-02 10:53:00
3:53 AM,21.9,18.0,85,29.92,10.0,WNW,4.6,-,N/A,,Clear,300,2013-03-02 12:53:00
4:53 AM,21.9,18.0,85,29.91,10.0,West,5.8,-,N/A,,Scattered Clouds,280,2013-03-02 13:53:00
5:01 AM,21.2,17.6,86,29.91,10.0,West,4.6,-,N/A,,Mostly Cloudy,270,2013-03-02 14:01:00
5:53 AM,24.1,21.0,88,29.92,10.0,WNW,4.6,-,N/A,,Mostly Cloudy,290,2013-03-02 14:53:00
6:40 AM,26.6,23.0,86,29.91,10.0,WSW,3.5,-,N/A,,Mostly Cloudy,250,2013-03-02 15:40:00
6:53 AM,26.1,21.9,84,29.91,10.0,Calm,Calm,-,N/A,,Mostly Cloudy,0,2013-03-02 15:53:00
7:53 AM,26.1,24.1,92,29.90,10.0,West,3.5,-,N/A,,Mostly Cloudy,270,2013-03-02 16:53:00
8:53 AM,32.0,27.0,82,29.89,10.0,SE,6.9,-,N/A,,Mostly Cloudy,140,2013-03-02 17:53:00
9:00 AM,32.0,26.6,80,29.89,10.0,SE,6.9,-,N/A,,Mostly Cloudy,140,2013-03-02 18:00:00
9:53 AM,33.1,27.0,78,29.90,10.0,South,8.1,-,N/A,,Mostly Cloudy,170,2013-03-02 18:53:00
10:53 AM,34.0,25.0,70,29.92,10.0,SE,11.5,-,N/A,,Overcast,130,2013-03-02 19:53:00
11:53 AM,35.1,26.1,70,29.90,10.0,ESE,16.1,-,N/A,,Overcast,120,2013-03-02 20:53:00
12:53 PM,35.1,26.1,70,29.90,10.0,SE,13.8,-,N/A,,Overcast,130,2013-03-02 21:53:00
1:53 PM,34.0,30.0,85,29.88,3.0,SE,15.0,21.9,0.00,Snow,Light Snow,140,2013-03-02 22:53:00
2:53 PM,35.1,30.0,82,29.86,3.0,ESE,19.6,-,0.01,Snow,Light Snow,120,2013-03-02 23:53:00
3:53 PM,36.0,28.0,73,29.85,10.0,East,23.0,-,0.00,,Overcast,100,2013-03-03 00:53:00
4:28 PM,35.6,30.2,81,29.84,3.0,SE,18.4,26.5,0.00,Snow,Light Snow,130,2013-03-03 01:28:00
4:53 PM,36.0,28.0,73,29.84,7.0,East,25.3,32.2,0.00,,Overcast,100,2013-03-03 01:53:00
5:34 PM,33.8,30.2,87,29.84,4.0,ESE,13.8,-,0.00,Snow,Light Snow,110,2013-03-03 02:34:00
5:53 PM,35.1,30.0,82,29.84,6.0,East,26.5,-,0.00,Rain-Snow,Light Rain,100,2013-03-03 02:53:00
6:53 PM,36.0,30.0,79,29.83,9.0,East,23.0,33.4,0.00,Rain-Snow,Light Rain,100,2013-03-03 03:53:00
7:53 PM,36.0,30.9,82,29.84,10.0,East,17.3,33.4,0.00,,Overcast,80,2013-03-03 04:53:00
8:32 PM,33.8,32.0,93,29.84,3.0,East,27.6,-,0.00,Snow,Light Snow,90,2013-03-03 05:32:00
8:53 PM,35.6,32.0,87,29.83,10.0,East,26.5,31.1,N/A,Rain,Light Rain,80,2013-03-03 05:53:00
9:08 PM,35.6,32.0,87,29.83,5.0,East,27.6,41.4,0.01,Rain-Snow,Light Rain,90,2013-03-03 06:08:00
9:53 PM,36.0,32.0,86,29.83,10.0,East,28.8,38.0,0.01,Rain-Snow,Light Rain,100,2013-03-03 06:53:00
10:53 PM,37.0,32.0,82,29.83,10.0,East,29.9,35.7,0.00,Rain,Light Rain,80,2013-03-03 07:53:00
11:53 PM,36.0,33.1,89,29.82,7.0,East,32.2,40.3,0.01,Rain,Light Rain,90,2013-03-03 08:53:00